Torna al catalogo

STARLINK-31566

AttivoComunicazioniVLEO
NORAD 59475·PAYLOAD·🇺🇸 United States

Lanciato Apr 10, 2024 da Cape Canaveral Space Force Station

Loading…

Prossimi Passaggi (prossime 24 ore)

TLE

AggiornatoSource: CelesTrak SupGP

Epoca: Sep 14, 2026, 20:56 UTC

1 59475C 24068W   26257.87270833  .00062914  00000+0  22790-2 0  2570
2 59475  43.0019  45.9836 0001522 272.7443 217.5391 15.27543262    19

Traccia STARLINK-31566 in tempo reale con AllMySat

Download on the App Store